Time,TemperatureF,DewpointF,PressureIn,WindDirection,WindDirectionDegrees,WindSpeedMPH,WindSpeedGustMPH,Humidity,HourlyPrecipIn,Conditions,Clouds,dailyrainin,SoftwareType,DateUTC
2013-06-16 00:02:00,75.0,63.0,29.94,South,174,0.0,2.0,67,0.00,,,0.00,,2013-06-16 04:02:00,
2013-06-16 00:12:00,74.0,62.0,29.94,South,174,0.0,1.0,67,0.00,,,0.00,,2013-06-16 04:12:00,
2013-06-16 00:23:00,74.0,63.0,29.94,South,174,0.0,3.0,68,0.00,,,0.00,,2013-06-16 04:23:00,
2013-06-16 00:33:00,74.0,63.0,29.95,South,174,0.0,3.0,69,0.00,,,0.00,,2013-06-16 04:33:00,
2013-06-16 00:42:00,74.0,63.0,29.95,South,174,0.0,1.0,69,0.00,,,0.00,,2013-06-16 04:42:00,
2013-06-16 00:53:00,74.0,63.0,29.95,South,174,0.0,2.0,69,0.00,,,0.00,,2013-06-16 04:53:00,
2013-06-16 01:01:00,74.0,64.0,29.95,South,174,0.0,3.0,70,0.00,,,0.00,,2013-06-16 05:01:00,
2013-06-16 01:12:00,73.0,63.0,29.95,South,180,0.0,2.0,71,0.00,,,0.00,,2013-06-16 05:12:00,
2013-06-16 01:22:00,73.0,63.0,29.96,SW,221,0.0,3.0,71,0.00,,,0.00,,2013-06-16 05:22:00,
2013-06-16 01:34:00,73.0,63.0,29.96,SW,224,0.0,5.0,71,0.00,,,0.00,,2013-06-16 05:34:00,
2013-06-16 01:43:00,74.0,64.0,29.96,SW,235,0.0,3.0,70,0.00,,,0.00,,2013-06-16 05:43:00,
2013-06-16 01:52:00,74.0,63.0,29.96,SW,232,0.0,3.0,69,0.00,,,0.00,,2013-06-16 05:52:00,
2013-06-16 02:01:00,74.0,63.0,29.96,SW,232,0.0,4.0,69,0.00,,,0.00,,2013-06-16 06:01:00,
2013-06-16 02:11:00,74.0,64.0,29.97,WSW,255,2.0,6.0,70,0.00,,,0.00,,2013-06-16 06:11:00,
2013-06-16 02:22:00,75.0,65.0,29.97,WNW,289,2.0,8.0,72,0.00,,,0.00,,2013-06-16 06:22:00,
2013-06-16 02:33:00,73.0,65.0,29.96,WNW,299,2.0,6.0,77,0.00,,,0.00,,2013-06-16 06:33:00,
2013-06-16 02:43:00,72.0,65.0,29.96,WNW,294,2.0,6.0,80,0.00,,,0.00,,2013-06-16 06:43:00,
2013-06-16 02:52:00,71.0,65.0,29.96,WNW,289,1.0,5.0,82,0.00,,,0.00,,2013-06-16 06:52:00,
2013-06-16 03:01:00,71.0,66.0,29.95,NW,310,0.0,4.0,83,0.00,,,0.00,,2013-06-16 07:01:00,
2013-06-16 03:11:00,70.0,65.0,29.94,WNW,302,0.0,3.0,84,0.00,,,0.00,,2013-06-16 07:11:00,
2013-06-16 03:22:00,70.0,65.0,29.95,WNW,292,0.0,3.0,84,0.00,,,0.00,,2013-06-16 07:22:00,
2013-06-16 03:33:00,69.0,64.0,29.94,WNW,289,0.0,1.0,85,0.00,,,0.00,,2013-06-16 07:33:00,
2013-06-16 03:43:00,69.0,64.0,29.94,WNW,289,0.0,1.0,85,0.00,,,0.00,,2013-06-16 07:43:00,
2013-06-16 03:53:00,69.0,65.0,29.93,WNW,289,0.0,1.0,86,0.00,,,0.00,,2013-06-16 07:53:00,
2013-06-16 04:02:00,69.0,65.0,29.93,WNW,289,0.0,0.0,86,0.00,,,0.00,,2013-06-16 08:02:00,
2013-06-16 04:12:00,68.0,64.0,29.92,WNW,289,0.0,0.0,87,0.00,,,0.00,,2013-06-16 08:12:00,
2013-06-16 04:22:00,68.0,64.0,29.93,WNW,289,0.0,1.0,88,0.00,,,0.00,,2013-06-16 08:22:00,
2013-06-16 04:33:00,68.0,64.0,29.93,WNW,289,0.0,1.0,88,0.00,,,0.00,,2013-06-16 08:33:00,
2013-06-16 04:43:00,68.0,65.0,29.93,WNW,289,0.0,1.0,89,0.00,,,0.00,,2013-06-16 08:43:00,
2013-06-16 04:54:00,68.0,65.0,29.94,WNW,289,0.0,2.0,89,0.00,,,0.00,,2013-06-16 08:54:00,
2013-06-16 05:02:00,67.0,64.0,29.93,WNW,289,0.0,1.0,90,0.00,,,0.00,,2013-06-16 09:02:00,
2013-06-16 05:11:00,67.0,64.0,29.93,WSW,249,0.0,2.0,90,0.00,,,0.00,,2013-06-16 09:11:00,
2013-06-16 05:22:00,67.0,64.0,29.93,SW,234,0.0,1.0,91,0.00,,,0.00,,2013-06-16 09:22:00,
2013-06-16 05:33:00,67.0,64.0,29.93,SW,234,0.0,1.0,91,0.00,,,0.00,,2013-06-16 09:33:00,
2013-06-16 05:43:00,67.0,64.0,29.93,SW,234,0.0,2.0,91,0.00,,,0.00,,2013-06-16 09:43:00,
2013-06-16 05:52:00,67.0,64.0,29.93,SW,234,0.0,1.0,91,0.00,,,0.00,,2013-06-16 09:52:00,
2013-06-16 06:02:00,67.0,65.0,29.94,SW,234,0.0,2.0,92,0.00,,,0.00,,2013-06-16 10:02:00,
2013-06-16 06:12:00,67.0,65.0,29.94,SW,234,0.0,2.0,92,0.00,,,0.00,,2013-06-16 10:12:00,
2013-06-16 06:22:00,67.0,65.0,29.93,SW,234,0.0,2.0,93,0.00,,,0.00,,2013-06-16 10:22:00,
2013-06-16 06:33:00,67.0,65.0,29.92,SW,234,0.0,2.0,93,0.00,,,0.00,,2013-06-16 10:33:00,
2013-06-16 06:43:00,67.0,65.0,29.92,SW,234,0.0,0.0,93,0.00,,,0.00,,2013-06-16 10:43:00,
2013-06-16 06:53:00,67.0,65.0,29.93,SW,234,0.0,0.0,93,0.00,,,0.00,,2013-06-16 10:53:00,
2013-06-16 07:02:00,66.0,64.0,29.93,SW,234,0.0,2.0,93,0.00,,,0.00,,2013-06-16 11:02:00,
2013-06-16 07:11:00,66.0,64.0,29.94,SW,234,0.0,1.0,94,0.00,,,0.00,,2013-06-16 11:11:00,
2013-06-16 07:22:00,66.0,64.0,29.95,SW,234,0.0,0.0,94,0.00,,,0.00,,2013-06-16 11:22:00,
2013-06-16 07:34:00,66.0,65.0,29.95,SW,234,0.0,1.0,95,0.00,,,0.00,,2013-06-16 11:34:00,
2013-06-16 07:43:00,66.0,65.0,29.95,SW,234,0.0,1.0,95,0.00,,,0.00,,2013-06-16 11:43:00,
2013-06-16 07:52:00,66.0,65.0,29.95,SW,234,0.0,2.0,95,0.00,,,0.00,,2013-06-16 11:52:00,
2013-06-16 08:02:00,66.0,65.0,29.96,SW,234,0.0,1.0,95,0.00,,,0.00,,2013-06-16 12:02:00,
2013-06-16 08:12:00,66.0,64.0,29.97,SW,234,0.0,1.0,94,0.00,,,0.00,,2013-06-16 12:12:00,
2013-06-16 08:22:00,67.0,65.0,29.97,SW,234,0.0,1.0,94,0.00,,,0.00,,2013-06-16 12:22:00,
2013-06-16 08:32:00,67.0,65.0,29.97,SW,234,0.0,2.0,94,0.00,,,0.00,,2013-06-16 12:32:00,
2013-06-16 08:42:00,67.0,65.0,29.97,SW,234,0.0,2.0,94,0.00,,,0.00,,2013-06-16 12:42:00,
2013-06-16 08:53:00,67.0,65.0,29.97,SW,234,0.0,1.0,94,0.00,,,0.00,,2013-06-16 12:53:00,
2013-06-16 09:01:00,67.0,65.0,29.98,SW,234,0.0,1.0,94,0.00,,,0.00,,2013-06-16 13:01:00,
2013-06-16 09:11:00,67.0,65.0,29.98,SW,234,0.0,1.0,94,0.00,,,0.00,,2013-06-16 13:11:00,
2013-06-16 09:22:00,68.0,66.0,29.98,SW,234,0.0,1.0,93,0.00,,,0.00,,2013-06-16 13:22:00,
2013-06-16 09:34:00,68.0,66.0,29.98,SW,234,0.0,1.0,93,0.00,,,0.00,,2013-06-16 13:34:00,
2013-06-16 09:43:00,68.0,66.0,29.97,SW,234,0.0,2.0,93,0.00,,,0.00,,2013-06-16 13:43:00,
2013-06-16 09:53:00,69.0,67.0,29.98,SW,234,0.0,2.0,92,0.00,,,0.00,,2013-06-16 13:53:00,
2013-06-16 10:02:00,69.0,67.0,29.98,SW,234,0.0,1.0,92,0.00,,,0.00,,2013-06-16 14:02:00,
2013-06-16 10:12:00,70.0,67.0,29.98,SW,234,0.0,3.0,89,0.00,,,0.00,,2013-06-16 14:12:00,
2013-06-16 10:22:00,70.0,66.0,29.98,SW,234,0.0,1.0,88,0.00,,,0.00,,2013-06-16 14:22:00,
2013-06-16 10:34:00,70.0,66.0,29.98,SW,234,0.0,2.0,87,0.00,,,0.00,,2013-06-16 14:34:00,
2013-06-16 10:43:00,70.0,67.0,29.99,SW,234,0.0,2.0,90,0.00,,,0.00,,2013-06-16 14:43:00,
2013-06-16 10:52:00,70.0,68.0,30.00,SW,234,0.0,3.0,92,0.00,,,0.00,,2013-06-16 14:52:00,
2013-06-16 11:02:00,69.0,67.0,30.00,SW,234,0.0,1.0,94,0.01,,,0.01,,2013-06-16 15:02:00,
2013-06-16 11:12:00,68.0,67.0,30.00,SW,234,0.0,2.0,95,0.01,,,0.01,,2013-06-16 15:12:00,
2013-06-16 11:23:00,68.0,67.0,29.99,SW,234,0.0,2.0,96,0.02,,,0.02,,2013-06-16 15:23:00,
2013-06-16 11:33:00,68.0,67.0,29.99,SW,234,0.0,2.0,96,0.02,,,0.02,,2013-06-16 15:33:00,
2013-06-16 11:43:00,68.0,67.0,29.98,SW,235,0.0,2.0,96,0.03,,,0.03,,2013-06-16 15:43:00,
2013-06-16 11:52:00,68.0,67.0,29.98,SW,235,0.0,1.0,97,0.03,,,0.03,,2013-06-16 15:52:00,
2013-06-16 12:02:00,68.0,67.0,29.98,SW,235,0.0,1.0,97,0.02,,,0.03,,2013-06-16 16:02:00,
2013-06-16 12:12:00,69.0,68.0,29.97,SW,235,0.0,3.0,97,0.02,,,0.03,,2013-06-16 16:12:00,
2013-06-16 12:23:00,69.0,68.0,29.98,SW,235,0.0,2.0,96,0.01,,,0.03,,2013-06-16 16:23:00,
2013-06-16 12:33:00,69.0,68.0,29.98,SW,235,0.0,1.0,96,0.01,,,0.03,,2013-06-16 16:33:00,
2013-06-16 12:43:00,69.0,68.0,29.98,SW,235,0.0,2.0,96,0.00,,,0.03,,2013-06-16 16:43:00,
2013-06-16 12:53:00,69.0,68.0,29.98,SW,235,0.0,1.0,96,0.00,,,0.03,,2013-06-16 16:53:00,
2013-06-16 13:02:00,69.0,68.0,29.98,SW,235,0.0,2.0,97,0.00,,,0.03,,2013-06-16 17:02:00,
2013-06-16 13:12:00,69.0,68.0,29.98,SW,235,0.0,3.0,96,0.00,,,0.03,,2013-06-16 17:12:00,
2013-06-16 13:22:00,69.0,68.0,29.98,SW,235,0.0,4.0,97,0.00,,,0.03,,2013-06-16 17:22:00,
2013-06-16 13:34:00,69.0,68.0,29.99,SW,235,0.0,4.0,97,0.00,,,0.03,,2013-06-16 17:34:00,
2013-06-16 13:43:00,68.0,67.0,29.99,SW,235,0.0,3.0,97,0.02,,,0.05,,2013-06-16 17:43:00,
2013-06-16 13:53:00,68.0,67.0,29.99,SW,235,0.0,3.0,97,0.04,,,0.07,,2013-06-16 17:53:00,
2013-06-16 14:02:00,67.0,66.0,29.98,SW,235,0.0,4.0,97,0.05,,,0.08,,2013-06-16 18:02:00,
2013-06-16 14:12:00,67.0,66.0,29.98,SW,235,0.0,2.0,98,0.06,,,0.09,,2013-06-16 18:12:00,
2013-06-16 14:22:00,67.0,66.0,29.97,SW,235,0.0,1.0,98,0.06,,,0.09,,2013-06-16 18:22:00,
2013-06-16 14:33:00,67.0,66.0,29.97,SW,235,0.0,2.0,98,0.07,,,0.10,,2013-06-16 18:33:00,
2013-06-16 14:43:00,67.0,66.0,29.97,SW,235,0.0,0.0,98,0.06,,,0.11,,2013-06-16 18:43:00,
2013-06-16 14:52:00,67.0,66.0,29.97,SW,235,0.0,1.0,98,0.06,,,0.13,,2013-06-16 18:52:00,
2013-06-16 15:01:00,67.0,66.0,29.97,SW,235,0.0,1.0,98,0.05,,,0.13,,2013-06-16 19:01:00,
2013-06-16 15:11:00,67.0,66.0,29.98,SW,235,0.0,2.0,98,0.05,,,0.14,,2013-06-16 19:11:00,
2013-06-16 15:22:00,67.0,67.0,29.97,SW,235,0.0,1.0,99,0.05,,,0.14,,2013-06-16 19:22:00,
2013-06-16 15:34:00,67.0,67.0,29.96,SW,235,0.0,2.0,99,0.04,,,0.14,,2013-06-16 19:34:00,
2013-06-16 15:43:00,68.0,68.0,29.96,SW,235,0.0,1.0,99,0.03,,,0.14,,2013-06-16 19:43:00,
2013-06-16 15:53:00,68.0,68.0,29.95,SW,235,0.0,1.0,99,0.01,,,0.14,,2013-06-16 19:53:00,
2013-06-16 16:02:00,68.0,68.0,29.95,SW,235,0.0,2.0,99,0.01,,,0.14,,2013-06-16 20:02:00,
2013-06-16 16:11:00,68.0,68.0,29.95,SW,235,0.0,1.0,99,0.00,,,0.14,,2013-06-16 20:11:00,
2013-06-16 16:22:00,68.0,68.0,29.95,SW,235,0.0,0.0,99,0.00,,,0.14,,2013-06-16 20:22:00,
2013-06-16 16:33:00,68.0,68.0,29.95,SW,235,0.0,1.0,99,0.00,,,0.14,,2013-06-16 20:33:00,
2013-06-16 16:42:00,69.0,69.0,29.94,SW,235,0.0,1.0,99,0.00,,,0.14,,2013-06-16 20:42:00,
2013-06-16 16:53:00,69.0,69.0,29.94,SW,235,0.0,1.0,99,0.00,,,0.14,,2013-06-16 20:53:00,
2013-06-16 17:02:00,69.0,69.0,29.93,SW,235,0.0,0.0,99,0.00,,,0.14,,2013-06-16 21:02:00,
2013-06-16 17:11:00,69.0,69.0,29.93,SW,235,0.0,0.0,99,0.00,,,0.14,,2013-06-16 21:11:00,
2013-06-16 17:22:00,70.0,69.0,29.93,SW,235,0.0,1.0,98,0.00,,,0.14,,2013-06-16 21:22:00,
2013-06-16 17:33:00,70.0,69.0,29.93,SW,235,0.0,3.0,97,0.00,,,0.14,,2013-06-16 21:33:00,
2013-06-16 17:42:00,71.0,70.0,29.93,SW,235,0.0,2.0,96,0.00,,,0.14,,2013-06-16 21:42:00,
2013-06-16 17:53:00,71.0,69.0,29.92,SW,235,0.0,2.0,95,0.00,,,0.14,,2013-06-16 21:53:00,
2013-06-16 18:01:00,71.0,69.0,29.92,South,182,0.0,3.0,94,0.00,,,0.14,,2013-06-16 22:01:00,
2013-06-16 18:12:00,72.0,70.0,29.92,ESE,112,0.0,2.0,92,0.00,,,0.14,,2013-06-16 22:12:00,
2013-06-16 18:22:00,72.0,70.0,29.93,SSE,149,0.0,4.0,93,0.00,,,0.14,,2013-06-16 22:22:00,
2013-06-16 18:32:00,72.0,70.0,29.93,SSE,157,0.0,2.0,92,0.00,,,0.14,,2013-06-16 22:32:00,
2013-06-16 18:42:00,72.0,69.0,29.93,SSE,163,0.0,2.0,91,0.00,,,0.14,,2013-06-16 22:42:00,
2013-06-16 18:52:00,72.0,69.0,29.93,SSE,148,0.0,3.0,91,0.00,,,0.14,,2013-06-16 22:52:00,
2013-06-16 19:01:00,72.0,70.0,29.93,SSE,148,0.0,2.0,92,0.00,,,0.14,,2013-06-16 23:01:00,
2013-06-16 19:11:00,72.0,70.0,29.93,SSE,148,0.0,2.0,92,0.00,,,0.14,,2013-06-16 23:11:00,
2013-06-16 19:22:00,72.0,70.0,29.93,SSE,148,0.0,2.0,93,0.00,,,0.14,,2013-06-16 23:22:00,
2013-06-16 19:32:00,72.0,70.0,29.93,SSE,148,0.0,0.0,93,0.00,,,0.14,,2013-06-16 23:32:00,
2013-06-16 19:42:00,72.0,70.0,29.93,SSE,148,0.0,0.0,94,0.00,,,0.14,,2013-06-16 23:42:00,
2013-06-16 19:52:00,72.0,70.0,29.93,SSE,148,0.0,1.0,94,0.00,,,0.14,,2013-06-16 23:52:00,
2013-06-16 20:02:00,72.0,70.0,29.93,SSE,148,0.0,2.0,94,0.00,,,0.14,,2013-06-17 00:02:00,
2013-06-16 20:11:00,72.0,70.0,29.93,SSE,148,0.0,2.0,93,0.00,,,0.14,,2013-06-17 00:11:00,
2013-06-16 20:22:00,72.0,70.0,29.93,SSE,148,0.0,3.0,94,0.00,,,0.14,,2013-06-17 00:22:00,
2013-06-16 20:32:00,72.0,70.0,29.93,SSE,148,0.0,2.0,94,0.00,,,0.14,,2013-06-17 00:32:00,
2013-06-16 20:43:00,72.0,70.0,29.93,SSE,149,0.0,1.0,94,0.00,,,0.14,,2013-06-17 00:43:00,
2013-06-16 20:52:00,72.0,70.0,29.92,SSE,149,0.0,1.0,95,0.00,,,0.14,,2013-06-17 00:52:00,
2013-06-16 21:02:00,71.0,69.0,29.92,SSE,148,0.0,1.0,95,0.00,,,0.14,,2013-06-17 01:02:00,
2013-06-16 21:12:00,71.0,69.0,29.92,SSE,149,0.0,0.0,95,0.00,,,0.14,,2013-06-17 01:12:00,
2013-06-16 21:22:00,71.0,70.0,29.92,SSE,149,0.0,2.0,96,0.00,,,0.14,,2013-06-17 01:22:00,
2013-06-16 21:32:00,70.0,69.0,29.92,SSE,149,0.0,0.0,97,0.00,,,0.14,,2013-06-17 01:32:00,
2013-06-16 21:43:00,70.0,69.0,29.92,SSE,149,0.0,0.0,97,0.00,,,0.14,,2013-06-17 01:43:00,
2013-06-16 21:53:00,70.0,69.0,29.92,SSE,149,0.0,0.0,97,0.00,,,0.14,,2013-06-17 01:53:00,
2013-06-16 22:02:00,70.0,69.0,29.93,SSE,149,0.0,1.0,97,0.00,,,0.14,,2013-06-17 02:02:00,
2013-06-16 22:12:00,69.0,68.0,29.93,SSE,148,0.0,2.0,97,0.00,,,0.14,,2013-06-17 02:12:00,
2013-06-16 22:22:00,69.0,68.0,29.93,SSE,149,0.0,0.0,98,0.00,,,0.14,,2013-06-17 02:22:00,
2013-06-16 22:34:00,69.0,68.0,29.93,SSE,149,0.0,1.0,98,0.00,,,0.14,,2013-06-17 02:34:00,
2013-06-16 22:43:00,69.0,68.0,29.93,SSE,149,0.0,1.0,98,0.00,,,0.14,,2013-06-17 02:43:00,
2013-06-16 22:53:00,69.0,68.0,29.93,SSE,149,0.0,1.0,98,0.00,,,0.14,,2013-06-17 02:53:00,
2013-06-16 23:02:00,69.0,68.0,29.93,SSE,149,0.0,1.0,98,0.00,,,0.14,,2013-06-17 03:02:00,
2013-06-16 23:12:00,69.0,68.0,29.93,SSE,149,0.0,2.0,98,0.00,,,0.14,,2013-06-17 03:12:00,
2013-06-16 23:22:00,69.0,68.0,29.93,SSE,149,0.0,1.0,98,0.00,,,0.14,,2013-06-17 03:22:00,
2013-06-16 23:33:00,69.0,68.0,29.93,SSE,149,0.0,1.0,98,0.00,,,0.14,,2013-06-17 03:33:00,
2013-06-16 23:44:00,69.0,68.0,29.93,SSE,149,0.0,1.0,98,0.00,,,0.14,,2013-06-17 03:44:00,
2013-06-16 23:53:00,69.0,68.0,29.92,SSE,149,0.0,0.0,98,0.00,,,0.14,,2013-06-17 03:53:00,